Weather History for Sydney, NW

Change the Weather History Date:

Tuesday, January 22, 2013

  Actual Average Record
Temperature  
Mean Temperature 80 °F -  
Max Temperature 89 °F 80 °F 95 °F (2009)
Min Temperature 70 °F 66 °F 62 °F (2008)
Cooling Degree Days 14    
Growing Degree Days 30 (Base 50)    
Moisture  
Dew Point 66 °F    
Average Humidity 68    
Maximum Humidity 94    
Minimum Humidity 38    
Precipitation  
Precipitation 0.01 in 0.15 in - ()
Sea Level Pressure  
Sea Level Pressure 29.81 in    
Wind  
Wind Speed 10 mph ()    
Max Wind Speed 30 mph    
Max Gust Speed 36 mph    
Visibility 7.9 miles    
Events Rain , Thunderstorm    
Averages and records for this station are not official NWS values.
T = Trace of Precipitation, MM = Missing Value Source: Averaged Metar Reports

Daily Weather History Graph

Daily Weather History Graph

Search for Another Location

Airport:

Trip Planner

Search our weather history database for the weather conditions in past years. The results will help you decide how hot, cold, wet, or windy it might be!

Date:

Astronomy

Jan. 22, 2013 Rise Set
Actual Time 6:06 AM EST 8:06 PM EST
Civil Twilight 5:38 AM EST 8:34 PM EST
Nautical Twilight 5:04 AM EST 9:08 PM EST
Astronomical Twilight 4:28 AM EST 9:44 PM EST
Moon 4:10 PM EST (1/22) 1:48 AM EST (1/22)
Length of Visible Light 14h 56m
Length of Day
14h 00m
Waxing Gibbous, 77% of the Moon is Illuminated
Jan 22
Waxing Gibbous
Jan 27
Full
Feb 4
Last Quarter
Feb 10
New
Feb 18
First Quarter

Hourly Weather History & Observations

Time (EST) Temp. Heat Index Dew Point Humidity Pressure Visibility Wind Dir Wind Speed Gust Speed Precip Events Conditions
12:00 AM 74 °F - 66 °F 71% 29.89 in 12 mi North 9.2 mph - -   Partly Cloudy
12:00 AM 73.4 °F - 66.2 °F 78% 29.89 in - North 9.2 mph - N/A   Clear
12:30 AM 73.4 °F - 66.2 °F 78% 29.86 in - North 9.2 mph - N/A   Clear
1:00 AM 73.4 °F - 66.2 °F 78% 29.86 in - North 9.2 mph - N/A   Clear
1:30 AM 71.6 °F - 66.2 °F 83% 29.86 in - NNW 6.9 mph - N/A   Clear
2:00 AM 72 °F - 66 °F 77% 29.86 in - NNW 6.9 mph - -  
2:00 AM 71.6 °F - 66.2 °F 83% 29.83 in - NNW 6.9 mph - N/A   Clear
2:30 AM 71.6 °F - 66.2 °F 83% 29.83 in - NNW 6.9 mph - N/A   Clear
3:00 AM 72 °F - 66 °F 77% 29.83 in 12 mi NNW 6.9 mph - -   Partly Cloudy
3:00 AM 71.6 °F - 66.2 °F 83% 29.83 in - NNW 6.9 mph - N/A   Clear
3:30 AM 71.6 °F - 66.2 °F 83% 29.80 in - North 5.8 mph - N/A   Clear
4:00 AM 71.6 °F - 66.2 °F 83% 29.80 in - North 4.6 mph - N/A   Clear
4:30 AM 71.6 °F - 66.2 °F 83% 29.80 in - NNE 4.6 mph - N/A   Clear
5:00 AM 72 °F - 67 °F 78% 29.82 in - Calm Calm - -  
5:00 AM 71.6 °F - 66.2 °F 83% 29.80 in - Calm Calm - N/A   Clear
5:30 AM 71.6 °F - 66.2 °F 83% 29.80 in - NE 4.6 mph - N/A   Clear
6:00 AM 72 °F - 66 °F 77% 29.83 in 12 mi North 6.9 mph - -   Haze
6:00 AM 71.6 °F - 66.2 °F 83% 29.83 in - North 6.9 mph - N/A   Clear
6:30 AM 73.4 °F - 66.2 °F 78% 29.83 in - North 5.8 mph - N/A   Clear
7:00 AM 73.4 °F - 66.2 °F 78% 29.83 in - NNE 5.8 mph - N/A   Clear
7:30 AM 75.2 °F - 66.2 °F 73% 29.83 in - North 8.1 mph - N/A   Clear
8:00 AM 77 °F - 66 °F 62% 29.86 in - North 11.5 mph - -  
8:00 AM 77.0 °F - 66.2 °F 69% 29.83 in - North 11.5 mph - N/A   Clear
8:30 AM 77.0 °F - 66.2 °F 69% 29.83 in - North 12.7 mph - N/A   Clear
9:00 AM 80 °F - 65 °F 51% 29.84 in 12 mi North 10.4 mph - -   Haze
9:00 AM 80.6 °F 82.3 °F 64.4 °F 58% 29.83 in - North 10.4 mph - N/A   Clear
9:30 AM 82.4 °F 83.9 °F 64.4 °F 54% 29.80 in - NE 12.7 mph - N/A   Clear
10:00 AM 82.4 °F 84.6 °F 66.2 °F 58% 29.80 in - NNE 9.2 mph - N/A   Clear
10:30 AM 80.6 °F 82.7 °F 66.2 °F 61% 29.80 in - NE 11.5 mph - N/A   Clear
11:00 AM 84 °F - 66 °F 44% 29.81 in - NE 12.7 mph - -  
11:00 AM 84.2 °F 86.6 °F 66.2 °F 55% 29.80 in - NE 12.7 mph - N/A   Clear
11:30 AM 86.0 °F 88.2 °F 66.2 °F 51% 29.80 in - NE 13.8 mph - N/A   Clear
12:00 PM 85 °F - 66 °F 44% 29.80 in 16 mi NE 11.5 mph - -   Partly Cloudy
12:00 PM 86.0 °F 88.2 °F 66.2 °F 51% 29.77 in - NE 11.5 mph - N/A   Clear
12:30 PM 86.0 °F 88.2 °F 66.2 °F 51% 29.77 in - NE 12.7 mph - N/A   Clear
1:00 PM 87.8 °F 90.4 °F 66.2 °F 49% 29.77 in - ENE 16.1 mph - N/A   Clear
1:30 PM 89.6 °F 92.2 °F 66.2 °F 46% 29.74 in 6.2 mi NE 18.4 mph - N/A   Scattered Clouds
2:00 PM 88 °F - 66 °F 38% 29.75 in - NE 20.7 mph - -  
2:00 PM 87.8 °F 90.4 °F 66.2 °F 49% 29.74 in 6.2 mi NE 20.7 mph - N/A   Mostly Cloudy
2:30 PM 84.2 °F 86.6 °F 66.2 °F 55% 29.74 in 6.2 mi NE 19.6 mph - N/A   Mostly Cloudy
3:00 PM 82 °F - 65 °F 47% 29.75 in 12 mi NNE 21.9 mph - -   Mostly Cloudy
3:00 PM 82.4 °F 83.9 °F 64.4 °F 54% 29.74 in 6.2 mi NNE 21.9 mph - N/A   Mostly Cloudy
3:30 PM 82.4 °F 84.6 °F 66.2 °F 58% 29.74 in 6.2 mi NE 18.4 mph - N/A   Mostly Cloudy
4:00 PM 84.2 °F 86.6 °F 66.2 °F 55% 29.77 in 6.2 mi NNW 8.1 mph - N/A Thunderstorm Partly Cloudy
4:08 PM 80.6 °F 82.7 °F 66.2 °F 61% 29.77 in 5.6 mi WSW 8.1 mph - N/A Rain , Thunderstorm Light Thunderstorms and Rain
4:30 PM 80.6 °F 82.7 °F 66.2 °F 61% 29.77 in 3.7 mi SE 19.6 mph - N/A Rain , Thunderstorm Light Thunderstorms and Rain
5:00 PM 80 °F - 59 °F 39% 29.75 in - ENE 21.9 mph - -  
5:00 PM 80.6 °F 81.1 °F 59.0 °F 48% 29.74 in 6.2 mi ENE 21.9 mph - N/A Thunderstorm Thunderstorm
5:09 PM 80.6 °F 82.3 °F 64.4 °F 58% 29.74 in 6.2 mi ENE 21.9 mph - N/A   Overcast
5:30 PM 82.4 °F 83.9 °F 64.4 °F 54% 29.71 in 6.2 mi NNE 18.4 mph - N/A   Overcast
6:00 PM 82 °F - 66 °F 49% 29.75 in 16 mi North 20.7 mph - -   Overcast
6:00 PM 82.4 °F 84.6 °F 66.2 °F 58% 29.74 in 6.2 mi North 20.7 mph - N/A   Overcast
6:30 PM 78.8 °F - 69.8 °F 74% 29.74 in 6.2 mi North 20.7 mph - N/A Rain Light Rain
7:00 PM 77.0 °F - 68.0 °F 74% 29.77 in - East 13.8 mph - N/A   Clear
7:30 PM 78.8 °F - 69.8 °F 74% 29.80 in - North 4.6 mph - N/A   Clear
8:00 PM 77 °F - 69 °F 71% 29.84 in - WSW 15.0 mph - -  
8:00 PM 77.0 °F - 69.8 °F 78% 29.83 in 6.2 mi WSW 15.0 mph - N/A   Unknown
8:30 PM 77.0 °F - 69.8 °F 78% 29.83 in 6.2 mi SE 6.9 mph - N/A   Unknown
9:00 PM 77 °F - 69 °F 70% 29.81 in 12 mi NNE 8.1 mph - - Rain Light Rain
9:00 PM 77.0 °F - 69.8 °F 78% 29.80 in 6.2 mi NNE 8.1 mph - N/A Rain Light Rain
9:16 PM 77.0 °F - 68.0 °F 74% 29.80 in - WSW 19.6 mph - N/A   Clear
9:30 PM 77.0 °F - 68.0 °F 74% 29.80 in - West 11.5 mph - N/A   Clear
10:00 PM 77.0 °F - 66.2 °F 69% 29.86 in - SW 12.7 mph - N/A   Clear
10:22 PM 73.4 °F - 69.8 °F 88% 29.86 in 6.2 mi South 23.0 mph 35.7 mph N/A   Mostly Cloudy
10:30 PM 71.6 °F - 69.8 °F 94% 29.89 in 6.2 mi South 25.3 mph - N/A   Scattered Clouds
10:38 PM 71.6 °F - 68.0 °F 88% 29.89 in 6.2 mi SSW 24.2 mph - N/A   Mostly Cloudy
11:00 PM 72 °F - 68 °F 85% 29.89 in - South 24.2 mph - -  
11:00 PM 71.6 °F - 68.0 °F 88% 29.86 in 6.2 mi South 24.2 mph - N/A   Mostly Cloudy
11:30 PM 71.6 °F - 68.0 °F 88% 29.86 in 5.0 mi South 29.9 mph - N/A   Mostly Cloudy